Zurück zum Katalog

COSMOS 839 DEB

AktivUNKNOWN
NORAD 14919·DEBRIS·🇷🇺 Russia

Gestartet Jul 8, 1976 von Plesetsk Cosmodrome

Loading…

Nächste Überflüge (nächste 24 Stunden)

TLE

AktuellSource: Space-Track

Epoche: Sep 14, 2026, 01:47 UTC

1 14919U 76067BG  26257.07497767 -.00000037  00000-0  61680-4 0  9995
2 14919  65.8052 171.3619 0716823  60.5796 319.7095 12.30402597645484

Verfolge COSMOS 839 DEB in Echtzeit mit AllMySat

Download on the App Store